User: anonymous   Login
Location: Unspecified
(0.0000°N, 0.0000°E)
Time: 01:14:59
(UTC+00:00)
Language:

Meteor 2-10 - Orbit

View from above orbital plane
View from above orbital plane
View from above satellite
View from above satellite

Ground track
Ground track

The orbit data is extracted from the following two-line orbital elements,

1 14452U 83109A   18200.56080182 +.00000051 +00000-0 +15727-4 0  9990
2 14452 081.1610 035.2160 0090249 308.6648 050.6481 14.26461806805398
Epoch (UTC): 19 July 2018 13:27:33
Eccentricity: 0.0090249
inclination: 81.1610°
perigee height: 739 km
apogee height: 868 km
right ascension of ascending node: 35.2160°
argument of perigee: 308.6648°
revolutions per day: 14.26461806
mean anomaly at epoch: 50.6481°
orbit number at epoch: 80539

The dashed part of the orbit path shows where the satellite is in the earth's shadow,  

DLR